This is the latest recevied weather packets stored in our database for station/object N6GPM. If no packets are shown the sender has not sent any weather packets the latest 10 day(s).
| Time | Temp. | Humidity | Pressure | Rain* | Wind** | Luminosity | Snow |
|---|---|---|---|---|---|---|---|
| 1787577518 | 23.33° C | 49% | 1019 hPa | 0 mm | - | 5 W/m² | - |
| 1787577215 | 23.33° C | 49% | 1018.4 hPa | 0 mm | - | 2 W/m² | - |
| 1787576910 | 23.33° C | 49% | 1018.7 hPa | 0 mm | - | 1 W/m² | - |
| 1787576605 | 23.33° C | 50% | 1018.4 hPa | 0 mm | - | 0 W/m² | - |
| 1787576302 | 23.33° C | 51% | 1018.6 hPa | 0 mm | - | 0 W/m² | - |
| 1787575997 | 22.78° C | 51% | 1018.7 hPa | 0 mm | - | 0 W/m² | - |
| 1787575691 | 23.33° C | 52% | 1018.4 hPa | 0 mm | - | 0 W/m² | - |
| 1787575388 | 23.33° C | 52% | 1018.2 hPa | 0 mm | - | 0 W/m² | - |
| 1787575083 | 23.33° C | 52% | 1018.5 hPa | 0 mm | - | 0 W/m² | - |
| 1787574778 | 23.33° C | 52% | 1018.6 hPa | 0 mm | - | 0 W/m² | - |
| 1787574472 | 23.33° C | 51% | 1018.2 hPa | 0 mm | - | 0 W/m² | - |
| 1787574172 | 23.33° C | 51% | 1018.3 hPa | 0 mm | - | 0 W/m² | - |
| 1787573872 | 23.33° C | 50% | 1018.4 hPa | 0 mm | - | 0 W/m² | - |
| 1787573570 | 23.33° C | 49% | 1018.3 hPa | 0 mm | - | 0 W/m² | - |
| 1787573267 | 23.33° C | 49% | 1018.3 hPa | 0 mm | - | 0 W/m² | - |
| 1787572963 | 23.33° C | 50% | 1018.4 hPa | 0 mm | - | 0 W/m² | - |
| 1787572659 | 23.33° C | 49% | 1018.3 hPa | 0 mm | - | 0 W/m² | - |
| 1787572359 | 23.89° C | 48% | 1018.2 hPa | 0 mm | - | 0 W/m² | - |
| 1787572058 | 23.89° C | 46% | 1018.2 hPa | 0 mm | - | 0 W/m² | - |
| 1787571753 | 24.44° C | 45% | 1018 hPa | 0 mm | - | 0 W/m² | - |
| 1787571453 | 25° C | 43% | 1018 hPa | 0 mm | - | 0 W/m² | - |
| 1787571147 | 25° C | 43% | 1018.2 hPa | 0 mm | - | 0 W/m² | - |
| 1787570844 | 25° C | 44% | 1017.9 hPa | 0 mm | - | 0 W/m² | - |
| 1787570539 | 24.44° C | 43% | 1018.4 hPa | 0 mm | - | 0 W/m² | - |
| 1787570236 | 24.44° C | 44% | 1018 hPa | 0 mm | - | 0 W/m² | - |
* Rain latest hour (hover to see other rain measurements)
** Current wind speed in m/s (hover to see current wind gust speed)